Temp_Advection
nan nan nan nan nan nan nan nan nan nan nan nan nan nan nan nan nan nan nan nan nan nan nan nan nan nan nan nan nan nan nan nan
nan 1 0 1 0 0 0 0 0 0 0 0 0 0 0 0 -0 -0 -0 -0 -0 -0 -0 -0 -0 -0 -1 -1 -1 -0 -0 nan
nan 0 0 1 0 0 0 0 0 0 0 0 0 0 0 0 -0 -0 -0 -0 -0 -0 -0 -0 -0 -0 -1 -1 -1 -1 -1 nan
nan -0 0 0 -0 0 0 0 0 0 0 0 0 0 0 -0 -0 -0 -0 -0 -0 -0 -0 -0 -0 -0 -0 -1 -1 -1 -1 nan
nan 0 0 0 0 0 0 0 0 0 0 0 0 0 -0 -0 -0 -0 -0 -0 -0 -0 -0 -0 -0 -0 -0 -0 -1 -1 -1 nan
nan 0 -0 0 1 1 0 0 0 0 0 0 0 -0 -0 0 -0 -0 -0 -0 -0 -0 -0 -0 -0 -0 -0 -0 -1 -1 -1 nan
nan 0 0 0 1 0 0 0 0 0 0 0 0 0 0 0 0 -0 -0 -0 -0 -0 -0 -0 -0 -0 -0 -1 -1 -1 -0 nan
nan -0 0 -0 1 0 0 0 0 0 0 0 0 0 0 0 0 0 -0 -0 -0 -0 -0 -0 -0 -0 -0 -1 -0 0 -1 nan
nan -0 0 0 0 0 0 0 0 0 0 0 0 0 0 0 -0 -0 0 0 -0 -0 -0 -0 -0 -0 -0 -0 0 -0 -1 nan
nan 0 1 0 -0 0 0 0 0 0 0 0 0 0 0 0 0 0 0 -0 -0 -0 -0 -0 -0 -0 -0 0 -0 -0 -0 nan
nan 1 1 0 0 0 0 0 0 0 0 0 0 0 0 0 0 0 0 -0 -0 -0 0 0 0 -0 -0 -0 -0 -0 -0 nan
nan 1 1 0 -0 0 0 0 0 0 0 0 0 0 0 0 0 0 0 0 0 0 0 0 -0 -0 -0 -0 -0 -0 -0 nan
nan 1 0 -1 0 -0 -0 0 0 0 0 0 0 0 0 0 0 0 0 0 0 0 0 -0 -0 -0 -0 -0 -0 -0 -0 nan
nan 0 -0 -0 1 -1 -0 0 1 0 0 0 0 0 0 0 0 0 0 0 0 0 -0 0 0 -0 -0 -0 -0 -0 -0 nan
nan 0 1 0 -0 1 1 1 1 1 1 1 0 0 0 0 0 0 0 0 0 0 0 0 -0 -0 -0 -0 -0 -0 -0 nan
nan 1 0 1 2 2 2 2 1 1 1 1 1 0 0 0 0 0 0 0 0 0 0 0 -0 -0 -0 -0 0 -0 -0 nan
nan 1 0 2 2 2 1 1 1 1 1 1 1 0 0 0 0 0 0 0 0 0 0 0 0 0 0 -0 -0 -0 -1 nan
nan 2 2 1 1 0 0 1 1 0 1 0 0 -0 0 0 1 0 0 0 0 0 0 0 1 0 0 -0 -1 -1 -1 nan
nan nan nan nan nan nan nan nan nan nan nan nan nan nan nan nan nan nan nan nan nan nan nan nan nan nan nan nan nan nan nan nan
Wind_Speed
19 18 16 14 13 9 6 4 2 2 1 1 2 1 2 3 2 3 4 6 7 9 11 13 15 16 17 19 22 23 20 26
20 19 18 16 13 9 7 5 2 1 2 2 2 3 2 1 1 3 4 6 8 9 11 13 14 15 17 19 21 22 20 27
19 18 16 14 13 11 9 7 5 5 4 5 5 4 3 2 2 3 4 6 8 10 12 13 13 13 15 16 18 21 19 23
20 19 16 15 14 12 10 7 6 7 6 7 6 3 2 2 4 5 6 7 8 9 10 10 11 12 13 15 16 18 18 19
22 22 20 17 16 14 10 7 6 5 5 5 4 3 3 3 2 3 5 6 7 7 8 10 12 12 12 13 15 15 18 17
23 22 20 17 17 15 12 9 7 6 6 7 6 5 5 2 1 2 4 5 6 8 9 9 9 10 11 12 13 15 15 16
20 19 20 17 16 15 12 10 10 9 9 8 7 6 4 2 1 2 3 4 6 7 8 9 9 10 10 11 12 13 15 15
21 24 23 19 18 16 13 9 8 8 9 8 7 5 4 3 2 2 3 5 6 6 8 8 9 9 10 11 12 13 16 16
22 25 22 20 18 15 13 10 9 10 9 8 7 5 4 3 2 3 4 5 5 6 7 7 8 10 10 11 12 14 14 15
22 23 22 20 19 17 15 13 14 12 9 8 7 6 5 4 3 4 4 3 4 5 7 8 9 9 10 11 12 13 14 14
20 23 23 20 19 18 17 17 14 10 10 10 8 6 4 3 3 2 2 4 5 6 6 7 8 9 10 11 12 14 14 14
21 23 22 21 25 19 20 19 14 14 13 11 8 6 5 4 5 5 5 5 5 5 6 7 8 10 11 12 12 13 14 15
26 22 22 29 27 23 22 20 17 15 13 12 10 8 8 7 6 7 6 6 5 6 7 8 9 10 11 11 13 14 15 16
24 28 29 28 27 29 25 24 20 18 17 14 13 11 8 7 7 7 7 6 6 7 8 8 9 10 11 13 13 13 15 16
20 30 33 32 33 31 31 26 22 20 19 18 14 12 9 8 8 8 7 7 7 8 8 8 9 11 12 13 12 13 14 15
21 23 27 33 36 32 31 29 25 22 21 17 16 13 11 10 9 9 9 8 8 8 8 8 9 9 10 12 12 12 13 14
21 24 25 28 33 32 29 29 27 24 22 18 16 15 13 11 11 11 10 10 9 9 8 8 8 8 10 9 11 11 13 13
15 22 24 25 27 31 30 28 27 27 23 20 18 17 14 13 13 12 12 11 10 10 9 8 7 7 9 9 11 9 10 12
10 15 19 21 24 28 28 28 28 25 25 23 19 18 16 15 15 14 13 11 10 9 9 8 6 5 7 7 11 8 9 10
Wind_Direction
177 172 170 174 180 181 182 188 218 253 304 10 30 69 92 82 56 25 8 356 356 357 353 354 357 358 360 1 2 3 358 353
180 176 180 179 182 182 187 203 203 185 159 150 164 155 157 170 8 358 351 350 349 348 349 351 351 351 353 357 1 3 2 2
182 179 174 172 179 188 190 194 194 196 195 196 184 190 214 251 298 320 342 347 346 347 348 345 345 348 352 359 5 9 12 6
188 183 179 177 183 191 196 198 193 192 187 190 198 221 246 336 333 342 351 351 348 347 345 345 350 355 357 4 9 13 15 15
193 188 185 178 188 195 191 191 193 195 199 213 218 201 217 266 296 344 352 352 353 357 0 4 4 3 4 8 12 13 17 15
195 192 187 179 191 189 189 188 191 193 205 210 215 221 236 235 302 345 4 6 11 16 10 6 6 10 10 14 15 18 17 21
195 191 184 182 188 191 192 194 194 196 205 208 209 198 189 180 208 52 38 24 17 19 21 16 17 18 17 19 20 17 21 25
191 188 188 184 190 193 197 196 202 212 209 201 187 178 175 167 141 113 62 46 34 31 31 26 28 26 27 27 25 21 21 25
195 194 190 187 186 189 196 195 210 211 200 190 182 174 173 166 145 100 75 59 49 44 44 41 40 37 35 34 30 30 28 25
191 192 192 190 187 192 198 199 212 200 193 187 179 184 179 159 118 87 72 68 72 64 58 51 47 45 44 42 41 40 36 33
190 192 193 191 189 192 199 205 206 192 192 191 188 179 155 133 116 123 138 118 92 77 68 63 58 56 55 54 52 49 46 41
193 194 194 192 198 192 202 206 203 200 195 191 180 173 170 175 179 167 145 124 108 95 81 71 67 65 64 60 59 59 55 51
201 195 193 201 201 198 200 204 207 204 199 191 187 192 189 186 171 161 152 139 124 107 93 84 77 73 68 67 61 57 54 51
211 210 210 213 202 206 205 206 206 204 203 196 196 192 183 175 165 159 149 137 125 116 103 91 86 81 74 68 63 58 53 50
219 215 219 216 212 211 206 205 203 199 199 195 193 186 177 173 166 156 147 137 127 117 107 100 91 85 77 70 64 61 57 52
227 212 213 216 213 209 206 203 200 195 194 187 191 187 179 176 165 156 145 135 128 121 112 106 99 90 86 74 63 61 58 53
231 219 206 209 207 199 195 195 195 190 181 188 185 186 181 172 163 155 148 141 134 123 117 108 102 98 92 80 77 56 56 54
233 219 209 203 197 191 187 185 186 185 188 181 181 184 178 171 164 156 151 146 143 140 133 124 114 104 91 79 78 67 60 51
217 199 194 192 186 184 181 180 185 190 180 183 183 182 176 172 165 163 159 154 149 147 143 136 132 110 90 77 77 72 62 54
Height
1502 1505 1507 1509 1511 1513 1514 1515 1516 1517 1518 1519 1519 1519 1519 1518 1518 1517 1517 1516 1515 1513 1512 1510 1508 1506 1503 1499 1495 1491 1487 1481
1499 1501 1503 1507 1509 1511 1513 1515 1516 1518 1519 1519 1520 1520 1520 1519 1517 1516 1516 1515 1514 1512 1510 1508 1506 1504 1502 1498 1495 1491 1487 1480
1498 1500 1502 1505 1506 1509 1510 1511 1513 1516 1518 1518 1519 1519 1519 1519 1517 1516 1515 1514 1512 1511 1509 1507 1505 1503 1502 1499 1496 1491 1487 1482
1496 1500 1502 1503 1505 1507 1509 1511 1512 1513 1515 1517 1518 1519 1518 1518 1517 1516 1514 1512 1511 1509 1508 1506 1504 1502 1499 1497 1495 1492 1487 1484
1491 1495 1498 1501 1502 1504 1507 1508 1511 1512 1514 1515 1516 1518 1520 1517 1516 1514 1512 1512 1511 1508 1506 1503 1501 1500 1498 1496 1493 1492 1487 1484
1487 1492 1497 1499 1499 1501 1503 1505 1508 1510 1511 1512 1514 1515 1516 1515 1514 1513 1511 1511 1509 1505 1503 1502 1501 1499 1498 1496 1494 1491 1488 1485
1487 1491 1495 1496 1497 1499 1501 1503 1505 1507 1508 1509 1511 1512 1514 1513 1514 1512 1509 1509 1509 1505 1502 1503 1501 1499 1498 1496 1495 1493 1488 1485
1482 1487 1491 1492 1494 1496 1499 1502 1504 1505 1508 1509 1509 1510 1512 1512 1512 1510 1509 1507 1507 1505 1502 1503 1501 1500 1498 1497 1495 1492 1487 1485
1480 1484 1487 1490 1493 1495 1497 1499 1504 1505 1507 1507 1507 1509 1510 1510 1510 1508 1507 1505 1506 1505 1503 1503 1502 1500 1498 1497 1494 1491 1489 1487
1475 1481 1485 1487 1491 1492 1495 1497 1503 1503 1504 1505 1506 1508 1508 1509 1507 1507 1505 1506 1506 1505 1504 1504 1502 1500 1499 1497 1495 1493 1491 1489
1473 1478 1481 1484 1488 1489 1492 1497 1499 1500 1502 1503 1505 1506 1506 1506 1506 1505 1506 1506 1506 1505 1505 1504 1502 1501 1499 1497 1496 1494 1492 1490
1470 1473 1476 1481 1483 1486 1490 1493 1495 1498 1499 1501 1502 1504 1505 1505 1505 1505 1505 1506 1505 1505 1505 1504 1503 1502 1500 1499 1497 1495 1493 1491
1466 1471 1474 1474 1477 1482 1486 1489 1492 1494 1497 1498 1500 1502 1503 1503 1503 1504 1504 1505 1505 1505 1504 1504 1503 1502 1501 1500 1499 1497 1495 1492
1460 1464 1465 1468 1474 1477 1482 1484 1487 1490 1494 1497 1499 1500 1501 1501 1502 1503 1503 1504 1504 1504 1505 1504 1504 1504 1503 1502 1500 1499 1497 1494
1454 1457 1458 1463 1468 1471 1475 1480 1483 1486 1490 1494 1497 1498 1499 1500 1501 1502 1503 1504 1504 1505 1505 1505 1505 1505 1505 1504 1503 1501 1498 1496
1449 1449 1451 1455 1461 1465 1470 1475 1479 1483 1488 1491 1494 1496 1497 1498 1500 1501 1502 1503 1504 1505 1506 1506 1506 1506 1506 1505 1504 1502 1500 1498
1440 1443 1444 1446 1450 1458 1464 1469 1474 1479 1484 1489 1491 1494 1495 1497 1498 1500 1502 1503 1504 1506 1507 1507 1507 1507 1506 1506 1505 1504 1502 1500
1432 1435 1438 1441 1445 1453 1459 1464 1469 1474 1480 1486 1489 1492 1493 1495 1497 1500 1502 1503 1505 1507 1508 1509 1508 1508 1507 1506 1505 1506 1504 1502
1426 1428 1432 1437 1442 1449 1456 1461 1465 1471 1478 1482 1486 1488 1490 1493 1496 1499 1501 1503 1505 1507 1508 1509 1508 1507 1506 1506 1505 1507 1506 1503